Find Starlink 31494

NORAD ID: 59238 Int'l Des: 2024-049 Owner: SPXS Country: US Constellation: starlink operational
LEOCIRCULAR

リアルタイム位置

3D地球を読み込み中...

Starlink 31494について

説明を読み込み中...

次回通過

Passes for default location (London). Set your location on the main map for personalized predictions.

高度履歴

Loading altitude history...

軌道要素

1 59238U 24049H 26132.99606036 .00000963 00000-0 44528-4 0 9994
2 59238 43.0025 140.1343 0001203 270.3809 89.6905 15.27567277122241
Epoch: May 12, 2026 • Age: 9 hours

現在のステータス

高度 482.4 km
速度 7.63 km/s
衛星直下点 10.69°N, 51.62°W
打ち上げ日 Mar 16, 2024
運用期間 2.1 years
タイプ internet

技術仕様

分類 Payload
質量 730.00 kg
乾燥質量 700.00 kg
総質量 730.00 kg
長さ 0.30 m
直径 4.10 m
スパン 29.00 m
形状 Box + pan
製造者 SPXS
バスタイプ Starlink V2M
フェーズステータス In Orbit
所有者/国 SPXS/US

Most Searched